Location: �perlecques
(50.8057°N, 2.1521°E)
Time: 15:24:50
(UTC+00:00)

YUBILEINY - Pass Details

Date: 09 April 2023
Orbit: 1478 x 1508 km, 82.5° (Epoch: 01 June)

Event Time Altitude Azimuth Distance (km) Brightness Sun altitude
Rises 23:27:13 0° 345° (NNW) 4,653 ? -31.2°
Reaches altitude 10° 23:30:31 10° 336° (NNW) 3,672 ? -31.2°
Maximum altitude 23:37:49 31° 280° (W) 2,424 ? -31.3°
Enters shadow 23:41:03 24° 247° (WSW) 2,715 ? -31.4°
